Happy Valentine's Day! 

Flight Track Log - Related Links

Times and Time Zones

All times are in EDT time to prevent confusion due to time zone crossing. See the N98BM flight status page for this flight to view local times or setup timezone preferences in your user account.


Time Position Orientation Groundspeed Altitude Reporting Facility
EDT Latitude Longitude Course Direction KTS MPH feet Rate Location/Type
Sat 03:35:02 PM 33.6258 -78.9192 238° Southwest 210 242 2,600  Level Jacksonville Center
Sat 03:36:02 PM 33.5942 -78.9806 238° Southwest 259 298 5,900 3,600 Climbing Jacksonville Center
Sat 03:37:02 PM 33.6053 -79.0647 279° West 242 278 9,800 3,333 Climbing Jacksonville Center
Sat 03:39:02 PM 33.6311 -79.2408 259° West 275 316 15,900 2,633 Climbing Jacksonville Center
Sat 03:40:02 PM 33.6850 -79.2958 320° Northwest 246 283 17,700 1,700 Climbing Jacksonville Center
Sat 03:41:02 PM 33.7917 -79.3067 355° North 253 291 19,300 1,900 Climbing Jacksonville Center
Sat 03:42:02 PM 33.8925 -79.3275 350° North 311 358 21,500 2,300 Climbing Jacksonville Center
Sat 03:44:02 PM 34.0792 -79.3650 351° North 341 392 26,200 1,800 Climbing Jacksonville Center
Sat 03:45:02 PM 34.1778 -79.3861 350° North 341 392 26,900 1,081 Climbing Jacksonville Center
Sat 03:46:54 PM 34.3756 -79.4192 352° North 414 476 29,300 1,387 Climbing Washington Center
Sat 03:47:55 PM 34.4814 -79.4392 351° North 398 458 30,900 1,462 Climbing Washington Center
Sat 03:48:53 PM 34.5847 -79.4642 349° North 388 447 32,200 1,160 Climbing Washington Center
Sat 03:49:54 PM 34.6919 -79.5022 344° North 388 447 33,200 893 Climbing Washington Center
Sat 03:50:54 PM 34.7931 -79.5372 344° North 388 447 34,000 249 Climbing Washington Center
Sat 03:53:07 PM 35.0547 -79.6289 344° North 430 495 34,000  Level Atlanta Center
Sat 03:54:07 PM 35.1808 -79.6478 353° North 445 512 34,000  Level Atlanta Center
Sat 03:55:07 PM 35.3089 -79.6714 351° North 452 520 34,000  Level Atlanta Center
Sat 03:56:07 PM 35.4347 -79.6953 351° North 457 526 34,000  Level Atlanta Center
Sat 03:57:07 PM 35.5631 -79.7217 351° North 457 526 34,000  Level Atlanta Center
Sat 03:58:07 PM 35.6867 -79.7408 353° North 457 526 34,000  Level Atlanta Center
Sat 03:59:07 PM 35.8022 -79.7603 352° North 457 526 34,000  Level Atlanta Center
Sat 04:00:07 PM 35.9408 -79.7889 351° North 457 526 34,000  Level Atlanta Center
Sat 04:01:29 PM 36.1083 -79.8264 350° North 481 554 34,000  Level Washington Center
Sat 04:02:30 PM 36.2347 -79.8514 351° North 481 554 34,000  Level Washington Center
Sat 04:03:31 PM 36.3653 -79.8739 352° North 481 554 34,000  Level Washington Center
Sat 04:04:31 PM 36.5064 -79.8997 352° North 470 541 34,000  Level Washington Center
Sat 04:05:30 PM 36.6367 -79.9278 350° North 470 541 34,000 -101 Level Washington Center
Sat 04:06:30 PM 36.7653 -79.9503 352° North 465 535 33,800 -545 Descending Washington Center
Sat 04:07:31 PM 36.8917 -79.9756 351° North 465 535 32,900 -908 Descending Washington Center
Sat 04:08:29 PM 37.0075 -80.0006 350° North 465 535 32,000 -908 Descending Washington Center
Sat 04:09:30 PM 37.1381 -80.0236 352° North 465 535 31,100 -492 Descending Washington Center
Sat 04:10:31 PM 37.2664 -80.0544 349° North 465 535 31,000 -353 Descending Washington Center
Sat 04:11:29 PM 37.4011 -80.0781 352° North 465 535 30,400 -706 Descending Washington Center
Sat 04:12:30 PM 37.5356 -80.1069 350° North 481 554 29,600 -694 Descending Washington Center
Sat 04:13:30 PM 37.6867 -80.1369 351° North 492 566 29,000 -300 Descending Washington Center
Sat 04:14:30 PM 37.8192 -80.1633 351° North 492 566 29,000 -50 Level Washington Center
Sat 04:15:31 PM 37.9494 -80.1897 351° North 485 558 28,900 -496 Descending Washington Center
Sat 04:16:31 PM 38.0819 -80.2164 351° North 480 552 28,000 -1,017 Descending Washington Center
Sat 04:17:29 PM 38.2144 -80.2431 351° North 480 552 26,900 -1,373 Descending Washington Center
Sat 04:18:29 PM 38.3303 -80.2664 351° North 480 552 25,300 -1,450 Descending Washington Center
Sat 04:19:29 PM 38.4650 -80.2933 351° North 480 552 24,000 -645 Descending Washington Center
Sat 04:20:30 PM 38.5931 -80.3228 350° North 480 552 24,000  Level Washington Center
Sat 04:21:26 PM 38.7178 -80.3433 353° North 470 541 24,000 -350 Level Indianapolis Center
Sat 04:22:30 PM 38.8486 -80.3697 351° North 477 549 23,300 -1,485 Descending Indianapolis Center
Sat 04:24:48 PM 39.1625 -80.4331 351° North 478 550 19,000 -5,848 Descending Cleveland Center
Sat 04:25:48 PM 39.2772 -80.4544 350° North 449 517 4,000 -1,500 Descending Cleveland Center
Sat 04:26:00 PM 39.3022 -80.4468 350° North  Level FlightAware Approximate
Sat 04:26:48 PM 39.3981 -80.4783 351° North 435 501 16,000  Level Cleveland Center
Sat 04:27:48 PM 39.5147 -80.5050 350° North 429 494 13,900 -1,800 Descending Cleveland Center
Sat 04:28:48 PM 39.6211 -80.5264 351° North 417 480 12,400 -1,500 Descending Cleveland Center
Sat 04:29:48 PM 39.7192 -80.5481 350° North 384 442 10,900 -1,600 Descending Cleveland Center
Sat 04:30:48 PM 39.8108 -80.5669 351° North 349 402 9,200 -1,800 Descending Cleveland Center
Sat 04:31:48 PM 39.8900 -80.5858 350° North 314 361 7,300 -2,050 Descending Cleveland Center
Sat 04:32:48 PM 39.9608 -80.6264 336° Northwest 287 330 5,100 -2,000 Descending Cleveland Center
Sat 04:33:48 PM 40.0297 -80.6644 337° Northwest 276 318 3,300 -1,200 Descending Cleveland Center
Sat 04:34:48 PM 40.0881 -80.6889 342° North 246 283 2,700 -650 Descending Cleveland Center
Sat 04:35:48 PM 40.1297 -80.6753 14° North 185 213 2,000 -700 Descending Cleveland Center
Sat 04:37:00 PM 40.1667 -80.6333 North  Level FlightAware Approximate
Sat 04:44:00 PM 40.1750 -80.6463 North  Level Estimated

Login

Don't have an account? Register now (free) for customized features, flight alerts, and more!